AJAX45 YPAD-YPLC

Flight info

Callsign AJAX45
Flight time 0h 38m
Altitude 18000
Route DCT AD YORKE LEWIS
Aircraft B350/L-SDFGHRZ/EB1

Departure

Time 2026-05-06 03:32
Airport Adelaide International Airport (YPAD)

Arrival

Time 2026-05-06 04:11
Airport Port Lincoln Airport (YPLC)
Time Latitude Longitude Altitude Speed Heading
2026-05-06 03:07 -34.95010 138.52211 28 ft 0 kts 228°
2026-05-06 03:21 -34.95013 138.52206 28 ft 1 kts 227°
2026-05-06 03:21 -34.95028 138.52203 28 ft 3 kts 157°
2026-05-06 03:22 -34.95056 138.52228 28 ft 2 kts 140°
2026-05-06 03:22 -34.95082 138.52263 28 ft 5 kts 128°
2026-05-06 03:22 -34.95100 138.52293 28 ft 6 kts 128°
2026-05-06 03:22 -34.95129 138.52342 28 ft 7 kts 98°
2026-05-06 03:23 -34.95088 138.52399 28 ft 10 kts 37°
2026-05-06 03:23 -34.95023 138.52460 28 ft 12 kts 37°
2026-05-06 03:23 -34.94948 138.52530 28 ft 12 kts 37°
2026-05-06 03:23 -34.94883 138.52591 28 ft 11 kts 38°
2026-05-06 03:24 -34.94792 138.52676 28 ft 13 kts 39°
2026-05-06 03:24 -34.94739 138.52727 28 ft 14 kts 37°
2026-05-06 03:24 -34.94657 138.52805 28 ft 13 kts 38°
2026-05-06 03:24 -34.94598 138.52859 28 ft 5 kts 38°
2026-05-06 03:25 -34.94572 138.52884 28 ft 6 kts 37°
2026-05-06 03:25 -34.94527 138.52925 28 ft 9 kts 37°
2026-05-06 03:25 -34.94450 138.53008 28 ft 12 kts 62°
2026-05-06 03:25 -34.94453 138.53107 30 ft 11 kts 120°
2026-05-06 03:26 -34.94482 138.53160 31 ft 11 kts 124°
2026-05-06 03:26 -34.94516 138.53245 31 ft 11 kts 103°
2026-05-06 03:26 -34.94501 138.53346 31 ft 13 kts 59°
2026-05-06 03:26 -34.94441 138.53438 31 ft 14 kts 49°
2026-05-06 03:27 -34.94350 138.53571 31 ft 15 kts 50°
2026-05-06 03:27 -34.94279 138.53673 32 ft 15 kts 49°
2026-05-06 03:27 -34.94232 138.53740 33 ft 15 kts 50°
2026-05-06 03:27 -34.94157 138.53851 32 ft 17 kts 50°
2026-05-06 03:28 -34.94085 138.53957 34 ft 15 kts 50°
2026-05-06 03:28 -34.94014 138.54062 34 ft 16 kts 51°
2026-05-06 03:28 -34.93955 138.54150 35 ft 4 kts 61°
2026-05-06 03:28 -34.93948 138.54181 35 ft 6 kts 92°
2026-05-06 03:29 -34.93979 138.54224 35 ft 6 kts 140°
2026-05-06 03:29 -34.93991 138.54236 35 ft 0 kts 141°
2026-05-06 03:30 -34.94011 138.54256 34 ft 4 kts 140°
2026-05-06 03:30 -34.94043 138.54289 34 ft 6 kts 138°
2026-05-06 03:30 -34.94070 138.54306 34 ft 6 kts 184°
2026-05-06 03:30 -34.94088 138.54288 34 ft 0 kts 229°
2026-05-06 03:31 -34.94089 138.54288 34 ft 1 kts 229°
2026-05-06 03:31 -34.94301 138.53979 32 ft 92 kts 230°
2026-05-06 03:32 -34.94807 138.53223 271 ft 128 kts 231°
2026-05-06 03:32 -34.95200 138.52628 539 ft 146 kts 229°
2026-05-06 03:32 -34.95881 138.51613 996 ft 163 kts 229°
2026-05-06 03:32 -34.96577 138.50528 1650 ft 163 kts 239°
2026-05-06 03:33 -34.96833 138.49173 2167 ft 173 kts 273°
2026-05-06 03:33 -34.96072 138.47492 2957 ft 180 kts 314°
2026-05-06 03:33 -34.95452 138.46809 3379 ft 180 kts 315°
2026-05-06 03:33 -34.94545 138.45746 3946 ft 183 kts 301°
2026-05-06 03:34 -34.94006 138.44397 4578 ft 180 kts 286°
2026-05-06 03:34 -34.93669 138.42928 5223 ft 180 kts 279°
2026-05-06 03:34 -34.93431 138.41441 5834 ft 181 kts 277°
2026-05-06 03:34 -34.93231 138.39932 6415 ft 183 kts 276°
2026-05-06 03:35 -34.92981 138.37897 7211 ft 186 kts 275°
2026-05-06 03:35 -34.92857 138.36868 7617 ft 186 kts 275°
2026-05-06 03:35 -34.92671 138.35312 8201 ft 188 kts 275°
2026-05-06 03:35 -34.92483 138.33737 8768 ft 190 kts 276°
2026-05-06 03:36 -34.92291 138.32127 9367 ft 192 kts 276°
2026-05-06 03:36 -34.92100 138.30524 9945 ft 193 kts 276°
2026-05-06 03:36 -34.91907 138.28917 10491 ft 195 kts 276°
2026-05-06 03:36 -34.91713 138.27293 11015 ft 197 kts 276°
2026-05-06 03:37 -34.91514 138.25639 11529 ft 199 kts 276°
2026-05-06 03:37 -34.91314 138.23967 12071 ft 202 kts 276°
2026-05-06 03:37 -34.91046 138.21732 12817 ft 203 kts 276°
2026-05-06 03:37 -34.90907 138.20583 13179 ft 204 kts 276°
2026-05-06 03:38 -34.90704 138.18895 13684 ft 206 kts 276°
2026-05-06 03:38 -34.90495 138.17160 14180 ft 207 kts 276°
2026-05-06 03:38 -34.90285 138.15425 14656 ft 209 kts 277°
2026-05-06 03:38 -34.90073 138.13672 15116 ft 211 kts 277°
2026-05-06 03:39 -34.89860 138.11917 15557 ft 212 kts 277°
2026-05-06 03:39 -34.89644 138.10135 15987 ft 214 kts 277°
2026-05-06 03:39 -34.89428 138.08356 16397 ft 215 kts 277°
2026-05-06 03:39 -34.89206 138.06532 16802 ft 217 kts 277°
2026-05-06 03:40 -34.88984 138.04715 17190 ft 218 kts 277°
2026-05-06 03:40 -34.88762 138.02896 17568 ft 219 kts 277°
2026-05-06 03:40 -34.88539 138.01071 17919 ft 221 kts 277°
2026-05-06 03:40 -34.88308 137.99175 18024 ft 234 kts 277°
2026-05-06 03:41 -34.88059 137.97141 18018 ft 248 kts 277°
2026-05-06 03:41 -34.87796 137.95003 18015 ft 259 kts 277°
2026-05-06 03:41 -34.87523 137.92799 18008 ft 267 kts 277°
2026-05-06 03:41 -34.87160 137.89833 17996 ft 268 kts 277°
2026-05-06 03:42 -34.86976 137.88344 17998 ft 267 kts 277°
2026-05-06 03:42 -34.86696 137.86087 17997 ft 267 kts 277°
2026-05-06 03:42 -34.86421 137.83873 17998 ft 266 kts 277°
2026-05-06 03:42 -34.86142 137.81632 17998 ft 266 kts 277°
2026-05-06 03:43 -34.85869 137.79433 17998 ft 266 kts 277°
2026-05-06 03:43 -34.85501 137.76472 17998 ft 265 kts 277°
2026-05-06 03:43 -34.85315 137.74979 17998 ft 265 kts 277°
2026-05-06 03:43 -34.85039 137.72766 17998 ft 265 kts 277°
2026-05-06 03:44 -34.84762 137.70544 17998 ft 265 kts 277°
2026-05-06 03:44 -34.84487 137.68343 17998 ft 265 kts 277°
2026-05-06 03:44 -34.84207 137.66110 17998 ft 265 kts 277°
2026-05-06 03:44 -34.83932 137.63913 17998 ft 265 kts 277°
2026-05-06 03:45 -34.83654 137.61700 17998 ft 265 kts 277°
2026-05-06 03:45 -34.83376 137.59491 17998 ft 265 kts 277°
2026-05-06 03:45 -34.83098 137.57278 17998 ft 265 kts 277°
2026-05-06 03:45 -34.82819 137.55064 17998 ft 265 kts 277°
2026-05-06 03:46 -34.82540 137.52858 17998 ft 265 kts 277°
2026-05-06 03:46 -34.82260 137.50645 17998 ft 265 kts 277°
2026-05-06 03:46 -34.81978 137.48419 17998 ft 265 kts 277°
2026-05-06 03:46 -34.81697 137.46204 17998 ft 265 kts 277°
2026-05-06 03:47 -34.81418 137.44014 17998 ft 265 kts 277°
2026-05-06 03:47 -34.81136 137.41794 17998 ft 265 kts 277°
2026-05-06 03:47 -34.80855 137.39594 17998 ft 265 kts 277°
2026-05-06 03:47 -34.80477 137.36630 17998 ft 265 kts 277°
2026-05-06 03:48 -34.80290 137.35165 17997 ft 264 kts 277°
2026-05-06 03:48 -34.80007 137.32951 17997 ft 264 kts 278°
2026-05-06 03:48 -34.79728 137.30772 17998 ft 263 kts 278°
2026-05-06 03:48 -34.79443 137.28558 17998 ft 262 kts 278°
2026-05-06 03:49 -34.79005 137.26413 17999 ft 263 kts 285°
2026-05-06 03:49 -34.78435 137.24306 17999 ft 263 kts 288°
2026-05-06 03:49 -34.77823 137.22220 17999 ft 263 kts 289°
2026-05-06 03:49 -34.77195 137.20123 17999 ft 262 kts 289°
2026-05-06 03:50 -34.76579 137.18054 17999 ft 262 kts 288°
2026-05-06 03:50 -34.75962 137.15970 17996 ft 262 kts 288°
2026-05-06 03:50 -34.75357 137.13882 17999 ft 262 kts 288°
2026-05-06 03:50 -34.74757 137.11786 17999 ft 262 kts 288°
2026-05-06 03:51 -34.74161 137.09701 17999 ft 262 kts 288°
2026-05-06 03:51 -34.73563 137.07611 17999 ft 262 kts 288°
2026-05-06 03:51 -34.72966 137.05522 17998 ft 262 kts 288°
2026-05-06 03:51 -34.72371 137.03439 17999 ft 262 kts 288°
2026-05-06 03:52 -34.71775 137.01355 17999 ft 262 kts 288°
2026-05-06 03:52 -34.71173 136.99252 17999 ft 262 kts 288°
2026-05-06 03:52 -34.70580 136.97179 17999 ft 262 kts 288°
2026-05-06 03:52 -34.69976 136.95070 17998 ft 262 kts 288°
2026-05-06 03:53 -34.69380 136.92987 17998 ft 261 kts 288°
2026-05-06 03:53 -34.68786 136.90920 17999 ft 261 kts 288°
2026-05-06 03:53 -34.68191 136.88849 17999 ft 261 kts 288°
2026-05-06 03:53 -34.67587 136.86745 17986 ft 262 kts 288°
2026-05-06 03:54 -34.66984 136.84637 17691 ft 273 kts 288°
2026-05-06 03:54 -34.66350 136.82430 17379 ft 281 kts 288°
2026-05-06 03:54 -34.65701 136.80174 17069 ft 287 kts 288°
2026-05-06 03:54 -34.65034 136.77861 16754 ft 292 kts 288°
2026-05-06 03:55 -34.64357 136.75516 16435 ft 295 kts 288°
2026-05-06 03:55 -34.63675 136.73160 16112 ft 298 kts 288°
2026-05-06 03:55 -34.62994 136.70808 15795 ft 299 kts 288°
2026-05-06 03:55 -34.62302 136.68420 15473 ft 300 kts 288°
2026-05-06 03:56 -34.61609 136.66031 15150 ft 300 kts 288°
2026-05-06 03:56 -34.60917 136.63646 14807 ft 299 kts 288°
2026-05-06 03:56 -34.60234 136.61291 14435 ft 300 kts 288°
2026-05-06 03:56 -34.59542 136.58908 14060 ft 299 kts 288°
2026-05-06 03:57 -34.58849 136.56522 13684 ft 299 kts 288°
2026-05-06 03:57 -34.58168 136.54179 13315 ft 298 kts 288°
2026-05-06 03:57 -34.57476 136.51802 12940 ft 298 kts 288°
2026-05-06 03:57 -34.56789 136.49440 12566 ft 297 kts 288°
2026-05-06 03:58 -34.56105 136.47092 12186 ft 293 kts 288°
2026-05-06 03:58 -34.55435 136.44795 11811 ft 290 kts 288°
2026-05-06 03:58 -34.54758 136.42476 11428 ft 287 kts 288°
2026-05-06 03:58 -34.54108 136.40254 11050 ft 281 kts 288°
2026-05-06 03:59 -34.53455 136.38020 10666 ft 277 kts 288°
2026-05-06 03:59 -34.52817 136.35840 10288 ft 274 kts 287°
2026-05-06 03:59 -34.52183 136.33673 9907 ft 269 kts 288°
2026-05-06 03:59 -34.51567 136.31566 9524 ft 263 kts 288°
2026-05-06 04:00 -34.50966 136.29517 9135 ft 253 kts 288°
2026-05-06 04:00 -34.50395 136.27571 8749 ft 244 kts 288°
2026-05-06 04:00 -34.49839 136.25674 8411 ft 234 kts 288°
2026-05-06 04:00 -34.49300 136.23836 8143 ft 224 kts 287°
2026-05-06 04:01 -34.48787 136.22087 7878 ft 217 kts 287°
2026-05-06 04:01 -34.48288 136.20392 7619 ft 211 kts 287°
2026-05-06 04:01 -34.47803 136.18742 7360 ft 207 kts 287°
2026-05-06 04:01 -34.47342 136.17177 7069 ft 188 kts 287°
2026-05-06 04:02 -34.46922 136.15745 6790 ft 177 kts 287°
2026-05-06 04:02 -34.46512 136.14339 6536 ft 176 kts 287°
2026-05-06 04:02 -34.46102 136.12944 6283 ft 174 kts 287°
2026-05-06 04:02 -34.45699 136.11566 6037 ft 173 kts 287°
2026-05-06 04:03 -34.45303 136.10213 5832 ft 171 kts 287°
2026-05-06 04:03 -34.44774 136.08398 5531 ft 170 kts 285°
2026-05-06 04:03 -34.44572 136.07478 5371 ft 170 kts 278°
2026-05-06 04:03 -34.44391 136.06076 5130 ft 169 kts 274°
2026-05-06 04:04 -34.44252 136.04692 4999 ft 162 kts 274°
2026-05-06 04:04 -34.44124 136.03354 4735 ft 158 kts 274°
2026-05-06 04:04 -34.44003 136.02057 4474 ft 152 kts 274°
2026-05-06 04:04 -34.43883 136.00794 4213 ft 149 kts 274°
2026-05-06 04:05 -34.43780 135.99571 3948 ft 144 kts 268°
2026-05-06 04:05 -34.43943 135.98401 3680 ft 139 kts 247°
2026-05-06 04:05 -34.44430 135.97430 3507 ft 133 kts 227°
2026-05-06 04:05 -34.45167 135.96729 3431 ft 140 kts 208°
2026-05-06 04:06 -34.46059 135.96191 3229 ft 146 kts 207°
2026-05-06 04:06 -34.46963 135.95648 2952 ft 143 kts 207°
2026-05-06 04:06 -34.47812 135.95129 2747 ft 133 kts 208°
2026-05-06 04:06 -34.48622 135.94611 2443 ft 131 kts 207°
2026-05-06 04:07 -34.49426 135.94118 2200 ft 130 kts 207°
2026-05-06 04:07 -34.50234 135.93634 1982 ft 133 kts 206°
2026-05-06 04:07 -34.51062 135.93169 1879 ft 131 kts 206°
2026-05-06 04:07 -34.51879 135.92658 1734 ft 133 kts 207°
2026-05-06 04:08 -34.52729 135.92171 1565 ft 135 kts 205°
2026-05-06 04:08 -34.53548 135.91704 1430 ft 128 kts 208°
2026-05-06 04:08 -34.54305 135.91173 1322 ft 127 kts 209°
2026-05-06 04:08 -34.55098 135.90714 1153 ft 123 kts 205°
2026-05-06 04:09 -34.55864 135.90309 952 ft 118 kts 205°
2026-05-06 04:09 -34.56592 135.89879 751 ft 115 kts 210°
2026-05-06 04:09 -34.57257 135.89388 575 ft 111 kts 212°
2026-05-06 04:09 -34.57936 135.88954 435 ft 110 kts 205°
2026-05-06 04:10 -34.58652 135.88619 325 ft 108 kts 200°
2026-05-06 04:10 -34.59371 135.88351 188 ft 108 kts 198°
2026-05-06 04:10 -34.60086 135.88089 42 ft 104 kts 198°
2026-05-06 04:10 -34.60682 135.87872 21 ft 69 kts 197°
2026-05-06 04:11 -34.61019 135.87753 19 ft 36 kts 195°
2026-05-06 04:11 -34.61155 135.87698 20 ft 10 kts 206°
2026-05-06 04:11 -34.61218 135.87668 20 ft 8 kts 178°
2026-05-06 04:11 -34.61160 135.87703 20 ft 9 kts 17°
2026-05-06 04:12 -34.61077 135.87729 19 ft 14 kts 15°
2026-05-06 04:12 -34.60973 135.87767 19 ft 16 kts 17°
2026-05-06 04:12 -34.60861 135.87807 19 ft 17 kts 17°
2026-05-06 04:12 -34.60742 135.87849 20 ft 18 kts 17°
2026-05-06 04:13 -34.60624 135.87894 22 ft 15 kts 17°
2026-05-06 04:13 -34.60530 135.87888 24 ft 14 kts 334°
2026-05-06 04:13 -34.60453 135.87837 25 ft 11 kts 311°
2026-05-06 04:13 -34.60430 135.87773 27 ft 7 kts 288°
2026-05-06 04:14 -34.60415 135.87717 29 ft 7 kts 286°
2026-05-06 04:14 -34.60400 135.87659 30 ft 7 kts 287°
2026-05-06 04:14 -34.60389 135.87602 31 ft 6 kts 278°
2026-05-06 04:14 -34.60358 135.87561 33 ft 7 kts 332°
2026-05-06 04:15 -34.60312 135.87526 34 ft 7 kts 306°
2026-05-06 04:15 -34.60279 135.87479 35 ft 7 kts 330°
2026-05-06 04:15 -34.60235 135.87453 36 ft 5 kts 334°
2026-05-06 04:15 -34.60238 135.87431 36 ft 4 kts 169°
2026-05-06 04:16 -34.60243 135.87434 36 ft 0 kts 149°